Temperature
26 25 24 23 22 21 21 21 20 20 19 19 19 19 19 19 19 18 18 18 18 18 18 18 18 18 18 18 18 18 18 18 18 18 18 18 18 18 18 18 18 17 17
26 25 24 23 22 21 21 21 20 20 20 19 19 19 19 19 19 19 18 18 18 18 18 18 18 18 18 18 18 18 18 18 18 18 18 18 18 18 18 18 18 18 18
27 25 24 23 22 21 21 21 20 20 20 20 19 19 19 19 19 19 19 18 18 18 18 18 18 18 18 18 18 17 17 18 18 17 17 17 18 18 18 18 18 18 18
27 25 24 23 23 22 21 21 20 20 20 19 19 19 19 19 19 19 18 18 18 18 18 18 18 18 18 18 18 17 17 17 17 17 17 18 18 18 17 17 18 18 17
27 26 24 23 23 22 21 21 20 20 20 19 19 19 19 19 18 18 18 18 18 18 18 18 18 18 18 18 18 17 17 17 17 17 17 17 18 17 17 17 17 17 17
27 26 25 24 23 22 21 21 20 20 20 19 19 19 19 19 18 18 18 18 18 18 18 18 18 18 18 18 18 18 17 17 17 17 17 17 17 17 17 17 17 17 17
27 26 25 24 23 22 21 21 20 20 20 19 19 19 19 19 19 18 18 18 18 18 18 18 18 18 18 18 18 17 18 17 17 17 17 17 17 17 17 17 17 16 16
27 26 25 24 23 22 21 21 20 20 20 20 19 19 19 19 19 18 18 18 18 18 18 18 18 18 18 17 17 17 17 17 17 17 17 17 17 17 17 17 17 16 16
28 26 25 24 23 22 21 21 20 20 19 19 19 19 19 19 19 19 18 18 18 18 18 18 18 18 17 17 17 17 17 17 17 17 17 17 17 17 17 16 16 16 16
28 26 25 24 23 22 22 21 20 20 19 19 19 19 19 19 19 19 19 18 18 18 18 18 18 17 17 17 17 17 17 17 17 17 17 16 16 16 16 16 16 16 16
28 27 26 25 24 23 22 21 20 20 19 19 19 19 19 18 18 18 18 18 18 18 18 18 17 17 17 17 17 17 17 16 16 16 16 16 16 16 16 16 16 16 16
28 27 25 25 24 23 22 21 20 20 20 19 19 19 19 19 18 18 18 18 18 18 18 17 17 17 17 17 17 17 16 16 16 16 16 16 16 16 16 16 16 16 15
27 27 25 24 24 23 22 21 21 20 20 19 19 19 19 18 18 18 18 18 18 18 17 17 17 17 17 17 17 16 16 16 16 16 16 16 16 16 16 15 15 15 15
27 26 25 24 23 23 22 21 21 20 20 20 19 19 19 18 18 18 18 18 18 17 17 17 17 17 17 17 17 16 16 16 16 15 15 15 15 15 15 15 15 15 15
26 26 25 24 23 22 21 21 21 20 20 19 19 19 19 18 18 18 18 18 17 17 17 17 17 17 17 16 16 16 16 15 15 15 15 15 15 15 15 14 14 14 14
26 25 25 24 23 22 21 21 20 20 20 19 19 19 18 18 18 18 18 18 17 17 17 17 16 16 16 16 16 16 15 15 15 15 15 14 14 14 14 14 14 14 14
26 25 24 23 22 22 21 21 20 20 19 19 19 19 18 18 18 17 17 17 17 17 17 16 16 16 16 16 16 15 15 15 15 14 14 14 14 14 14 14 14 13 13
25 24 24 23 22 22 21 21 20 20 19 19 19 18 18 18 18 17 17 17 17 16 16 16 16 16 16 16 16 15 15 14 14 14 14 14 13 13 13 13 13 13 13
24 24 24 23 22 22 21 20 20 19 19 19 18 18 18 18 17 17 17 17 16 16 15 15 15 15 15 15 15 15 14 14 14 14 13 13 13 13 13 13 13 13 12
24 23 23 23 22 21 21 20 20 19 19 18 18 18 18 17 17 17 17 16 16 15 15 15 15 15 15 15 15 14 14 14 13 13 13 13 13 13 12 12 12 12 12
23 22 22 22 21 21 20 20 19 19 18 18 18 17 17 17 17 16 16 16 15 15 15 15 15 15 15 14 14 14 14 13 13 13 13 13 12 12 12 12 12 11 11
21 21 21 21 21 20 20 19 19 18 18 18 17 17 17 16 16 16 16 15 15 15 15 14 14 14 14 14 14 14 13 13 13 12 12 12 12 12 12 11 11 11 11
20 20 20 20 19 19 19 19 18 18 18 17 17 16 16 16 15 15 15 15 15 14 14 14 14 14 14 13 13 13 13 12 12 12 12 12 11 11 11 11 11 11 10
19 19 19 18 18 18 18 18 18 17 17 17 17 16 16 16 15 15 15 15 14 14 14 14 14 13 13 13 13 13 12 12 12 11 11 11 11 11 11 11 10 10 10
18 18 18 17 17 17 17 17 17 17 17 16 16 16 15 15 15 15 15 14 14 14 14 14 13 13 13 13 13 12 12 12 11 11 11 11 11 10 10 10 10 10 9
17 17 17 17 17 17 17 17 17 16 16 16 16 15 15 15 15 14 14 14 14 13 13 13 13 13 12 12 12 12 12 11 11 11 10 10 10 10 10 10 9 9 9
Wind_Speed
13 13 12 12 12 10 10 9 8 7 6 5 5 4 4 4 4 4 6 7 6 6 4 2 2 2 2 3 3 2 3 3 3 2 2 3 4 4 3 3 3 4 7
13 13 12 12 12 11 10 9 8 8 7 5 4 4 4 3 4 3 5 7 6 5 5 4 3 2 2 2 3 3 2 3 2 2 2 2 2 2 4 3 3 3 3
14 14 13 12 12 12 11 9 9 8 8 6 4 4 3 2 2 3 4 4 5 5 4 3 3 2 3 3 4 4 4 4 3 3 2 2 2 1 1 2 3 3 3
14 15 14 12 12 12 11 9 9 8 7 6 5 5 4 4 3 3 4 4 4 4 4 4 3 2 2 3 4 4 4 4 4 3 3 3 2 1 1 1 1 2 2
13 14 14 12 11 11 11 10 8 7 7 6 6 5 4 3 2 2 3 4 4 4 3 4 3 3 3 3 3 2 3 3 3 3 3 3 3 4 3 3 2 1 1
12 12 12 11 10 10 9 10 9 7 7 7 6 5 4 3 2 2 3 3 3 3 3 3 2 3 3 3 2 2 3 3 3 3 3 3 2 2 3 3 3 2 1
12 12 12 11 10 10 10 10 9 8 8 7 6 6 5 4 3 3 3 3 2 3 3 3 3 3 3 3 2 3 3 3 4 4 3 3 3 3 3 3 3 2 2
13 13 12 11 10 11 10 10 10 8 8 7 6 5 5 4 3 3 2 2 2 2 3 2 3 3 3 3 2 3 3 3 4 4 3 3 3 3 3 3 3 2 2
13 13 13 12 11 10 10 10 9 8 7 7 6 5 5 4 3 3 2 2 2 2 2 2 2 2 2 3 2 3 3 2 3 3 3 3 3 3 3 3 3 3 3
13 12 12 12 11 10 9 9 9 8 6 7 6 6 6 5 4 3 3 1 1 0 0 1 2 2 3 3 2 2 3 3 3 2 2 2 2 2 2 3 3 3 3
13 13 12 12 11 11 11 10 9 8 7 7 6 5 5 5 4 3 2 1 0 0 1 1 2 2 2 2 2 2 2 2 2 2 2 1 2 2 2 2 1 1 1
11 12 12 11 10 10 11 10 10 9 8 7 6 5 4 4 4 4 3 2 1 0 1 1 2 1 1 1 1 2 2 1 1 1 1 1 1 1 2 2 1 1 1
9 11 11 10 9 9 9 10 10 9 9 8 7 6 5 5 4 3 3 2 2 1 0 0 0 0 0 0 0 1 1 0 0 0 1 1 1 1 1 1 1 1 1
8 9 9 9 8 8 8 8 8 8 8 8 8 7 6 5 4 4 3 2 2 2 1 1 1 1 1 1 0 0 1 0 0 1 1 1 2 1 1 1 1 1 0
10 10 10 9 8 9 8 8 8 8 7 7 7 6 6 5 4 4 3 3 3 3 2 2 1 1 2 1 1 0 0 0 0 1 2 2 2 3 2 1 1 1 0
11 10 11 11 10 9 9 8 8 8 8 7 7 7 6 5 4 4 3 3 3 2 2 2 2 1 2 4 5 2 1 1 1 1 1 1 2 2 2 3 3 2 1
7 8 9 10 9 10 9 9 8 8 8 7 7 7 6 6 5 4 4 3 3 3 2 2 2 3 4 5 5 4 2 1 1 1 1 1 2 2 2 2 1 2 2
5 6 7 8 10 10 10 9 9 8 8 7 7 6 6 6 5 4 3 3 2 2 3 3 3 3 3 4 4 4 1 1 1 1 1 1 2 3 2 1 2 2 2
2 3 6 7 8 10 10 9 9 8 8 7 7 6 6 5 5 4 3 3 3 2 3 3 3 3 3 4 4 3 1 2 2 2 3 3 3 4 4 2 1 2 2
3 2 3 6 7 8 9 9 9 8 7 7 6 5 5 5 4 4 3 3 3 2 3 3 3 3 3 4 4 3 1 1 1 2 4 6 5 5 4 2 1 1 2
4 3 3 5 6 7 8 8 7 7 6 7 6 6 5 4 4 3 3 4 3 3 3 3 3 3 4 4 3 3 2 1 0 1 2 3 5 4 4 3 2 1 2
6 5 5 5 5 6 7 7 6 6 7 7 7 6 5 4 5 4 3 3 3 3 3 3 2 3 4 4 3 2 1 2 1 1 2 3 3 2 2 3 3 3 2
6 6 6 6 6 5 5 5 5 7 7 7 6 6 5 3 3 4 3 3 3 3 2 2 2 2 3 3 3 2 1 2 1 2 4 4 2 0 0 1 2 2 2
6 6 6 6 5 5 5 4 5 6 7 7 6 5 4 4 3 2 2 2 1 1 2 2 1 2 2 2 1 1 1 2 2 2 2 3 2 1 1 1 1 1 2
5 5 5 4 5 5 4 4 4 5 6 6 6 6 4 4 4 3 2 2 2 1 1 1 1 1 2 2 3 3 2 1 1 2 1 1 1 0 1 1 1 1 1
4 5 5 4 4 5 4 4 4 3 3 4 4 4 4 4 5 4 3 6 4 5 6 4 2 3 3 4 4 3 2 2 2 2 1 1 1 1 1 1 1 1 1
Wind_Direction
166 159 163 162 159 161 165 170 175 166 170 172 181 191 199 193 195 189 186 182 196 197 203 227 183 201 208 208 211 207 225 226 223 236 275 257 227 212 201 202 192 191 193
164 160 165 166 165 167 169 173 178 172 181 182 184 197 199 200 197 189 169 181 189 199 204 200 211 203 212 219 231 223 231 244 229 220 236 259 258 248 221 189 190 195 180
168 165 169 172 172 172 176 181 179 176 184 183 180 193 185 218 199 176 179 188 192 206 214 195 209 209 199 206 229 227 224 235 241 221 207 221 234 264 270 212 188 180 190
165 166 172 176 178 175 177 176 172 175 178 181 192 195 194 202 210 192 180 184 198 205 201 201 218 218 229 212 227 213 228 231 249 250 234 229 225 205 250 278 197 193 195
164 165 170 174 173 172 171 169 166 172 173 183 194 197 207 206 217 199 174 188 193 201 206 194 208 220 238 228 237 233 234 239 246 250 253 249 238 219 212 237 241 300 306
152 154 161 162 166 166 163 161 164 171 174 185 196 199 202 198 208 203 190 199 195 202 204 201 202 214 235 235 233 229 233 243 259 259 258 251 241 232 221 229 225 238 261
151 154 158 160 163 164 163 162 165 172 179 187 195 194 198 194 200 214 212 211 210 198 200 209 193 218 233 233 228 223 240 237 247 249 254 259 253 249 236 217 233 240 239
156 158 160 160 161 165 166 165 166 172 179 183 188 189 188 193 201 205 215 216 228 199 181 192 195 208 228 241 228 233 236 238 247 255 255 258 262 257 236 218 214 235 244
157 159 160 160 161 165 166 165 163 172 178 178 177 178 179 186 188 190 206 218 227 220 176 186 194 215 228 245 238 239 245 243 249 261 264 265 272 266 253 240 224 217 238
156 160 159 160 163 164 162 162 163 172 172 171 177 179 179 180 184 191 196 218 220 248 166 196 215 221 226 234 240 245 245 241 247 249 261 269 279 287 279 250 240 226 217
164 160 158 159 161 160 161 162 161 165 169 171 168 169 167 170 169 172 171 168 141 181 190 230 243 238 243 239 237 245 252 247 267 276 280 303 313 319 309 285 268 233 197
160 156 155 153 158 161 160 158 160 166 166 164 158 158 155 156 163 161 148 143 159 202 223 228 246 253 252 256 271 284 274 240 266 303 336 321 313 316 319 319 308 242 210
158 155 152 153 158 160 156 157 163 162 162 158 157 153 157 157 157 151 145 148 146 161 258 188 189 216 213 162 37 274 287 288 273 299 319 327 340 330 344 325 311 293 227
162 159 152 152 154 151 147 152 154 152 152 152 155 153 158 154 153 146 140 139 143 151 116 81 99 111 93 61 51 352 310 24 43 47 42 43 37 360 332 302 306 315 307
170 167 159 155 154 149 149 153 154 147 145 150 153 151 150 146 142 140 144 142 149 152 134 119 98 87 79 47 31 357 21 27 50 68 70 68 66 54 29 357 4 350 266
173 172 165 162 162 158 157 156 154 150 148 156 154 147 151 149 146 147 138 132 131 126 124 127 107 82 63 53 45 21 5 70 82 63 66 104 107 78 62 57 38 15 279
164 165 168 168 165 165 161 160 155 154 156 154 148 150 152 149 153 155 146 148 144 142 139 126 104 88 74 61 49 28 10 37 104 101 62 33 57 81 61 51 27 8 20
147 167 173 170 169 169 165 158 159 162 159 156 155 153 153 147 143 141 144 146 137 141 142 132 123 110 87 66 51 23 29 39 64 74 82 69 61 45 30 37 43 33 23
127 156 170 168 167 167 160 159 162 161 162 163 159 157 154 148 147 149 152 150 144 145 144 142 134 120 97 69 51 27 79 71 65 62 60 68 68 43 39 55 43 43 47
75 99 148 148 148 153 155 158 162 161 161 156 151 145 146 149 152 148 152 154 158 160 150 145 142 137 115 91 64 34 63 82 77 85 85 71 59 48 32 47 44 45 27
70 74 94 122 127 138 148 154 157 159 151 139 136 138 135 135 137 143 153 158 163 163 158 150 141 134 120 109 76 42 27 19 53 83 84 74 63 50 32 31 35 18 331
61 67 82 97 108 130 144 152 151 139 132 132 135 135 136 150 146 143 150 155 169 174 164 154 149 127 122 113 103 78 57 0 18 64 75 92 83 51 29 38 24 359 335
66 63 78 87 94 105 121 141 136 133 135 135 138 138 131 121 133 144 150 160 175 181 169 164 160 143 131 118 109 113 95 42 34 76 101 123 138 94 34 42 342 333 309
72 70 76 87 92 98 102 106 122 133 136 138 137 136 138 140 137 139 152 165 181 180 172 169 169 152 132 117 117 137 125 109 96 96 117 143 181 271 342 356 306 279 312
76 80 81 92 101 99 97 106 118 133 138 141 146 147 152 146 132 120 83 103 72 100 141 127 127 140 145 174 177 176 189 203 188 162 165 163 167 231 243 247 241 246 318
90 92 90 98 105 106 102 107 122 128 140 154 159 157 156 157 153 143 120 69 87 88 88 77 84 96 106 142 151 149 143 158 164 173 181 195 215 226 245 245 239 230 267
Height
1526 1530 1533 1536 1538 1539 1541 1543 1545 1547 1548 1550 1552 1554 1556 1557 1558 1559 1560 1560 1562 1563 1564 1565 1566 1567 1567 1568 1569 1569 1570 1571 1572 1573 1572 1573 1573 1573 1574 1574 1574 1575 1575
1524 1528 1531 1534 1536 1538 1540 1542 1543 1545 1547 1549 1551 1552 1555 1556 1557 1558 1559 1559 1560 1561 1562 1563 1564 1565 1565 1566 1567 1568 1568 1569 1570 1571 1571 1571 1573 1571 1572 1572 1572 1573 1573
1521 1525 1529 1532 1535 1536 1538 1540 1542 1544 1546 1548 1550 1552 1553 1555 1556 1556 1557 1558 1559 1560 1560 1561 1562 1563 1563 1564 1565 1565 1566 1567 1568 1569 1570 1570 1569 1570 1570 1570 1570 1571 1571
1518 1523 1527 1530 1533 1535 1537 1539 1540 1542 1544 1546 1548 1550 1551 1553 1554 1555 1556 1556 1557 1558 1559 1559 1560 1561 1562 1562 1563 1563 1564 1565 1565 1566 1567 1568 1568 1568 1568 1568 1568 1569 1569
1516 1521 1524 1528 1531 1534 1536 1537 1539 1541 1543 1545 1546 1548 1550 1551 1552 1553 1554 1555 1556 1556 1557 1557 1558 1559 1560 1560 1560 1561 1561 1562 1562 1563 1564 1564 1565 1565 1566 1565 1566 1566 1566
1515 1519 1523 1527 1530 1533 1535 1536 1537 1539 1541 1543 1545 1546 1548 1549 1550 1551 1553 1553 1554 1554 1555 1556 1556 1557 1557 1558 1558 1559 1559 1559 1560 1560 1561 1561 1562 1562 1562 1562 1562 1563 1563
1513 1518 1522 1525 1528 1531 1533 1534 1536 1538 1540 1541 1543 1544 1546 1547 1549 1549 1551 1551 1552 1553 1553 1554 1554 1554 1555 1556 1556 1556 1556 1556 1557 1557 1557 1558 1558 1559 1559 1559 1559 1559 1560
1512 1516 1520 1524 1527 1529 1531 1533 1534 1536 1537 1539 1541 1542 1544 1545 1547 1548 1549 1550 1551 1551 1552 1552 1552 1552 1553 1553 1553 1553 1553 1554 1554 1554 1554 1555 1555 1555 1556 1556 1556 1556 1557
1510 1515 1518 1522 1525 1527 1529 1531 1532 1534 1536 1537 1539 1540 1542 1543 1544 1546 1547 1548 1549 1550 1550 1550 1550 1550 1550 1551 1551 1551 1551 1551 1551 1551 1551 1551 1552 1552 1552 1553 1553 1554 1553
1509 1513 1517 1520 1523 1525 1527 1529 1531 1532 1534 1535 1537 1538 1540 1541 1542 1544 1545 1546 1547 1548 1548 1548 1548 1548 1548 1548 1548 1548 1548 1548 1548 1548 1548 1548 1549 1549 1549 1549 1550 1550 1550
1507 1510 1515 1518 1521 1523 1526 1527 1529 1530 1532 1534 1535 1537 1538 1539 1541 1542 1543 1544 1545 1546 1546 1546 1546 1546 1546 1545 1545 1545 1545 1545 1545 1545 1545 1545 1545 1545 1545 1546 1546 1546 1547
1505 1509 1514 1517 1520 1522 1524 1526 1527 1529 1530 1532 1534 1536 1537 1538 1539 1540 1542 1543 1543 1544 1544 1543 1544 1543 1543 1543 1542 1542 1542 1542 1542 1542 1542 1542 1542 1542 1542 1543 1543 1543 1543
1506 1510 1513 1516 1519 1521 1523 1525 1526 1528 1529 1531 1533 1534 1536 1537 1538 1539 1540 1541 1541 1542 1542 1541 1541 1541 1541 1541 1540 1540 1540 1539 1539 1540 1540 1540 1540 1539 1540 1540 1540 1540 1541
1505 1509 1513 1515 1518 1520 1522 1524 1525 1527 1528 1530 1532 1533 1534 1536 1537 1537 1538 1539 1540 1540 1540 1540 1539 1539 1539 1539 1538 1538 1537 1537 1537 1537 1538 1537 1537 1537 1537 1537 1537 1537 1538
1505 1508 1511 1514 1517 1519 1521 1523 1525 1526 1528 1529 1531 1532 1533 1534 1535 1536 1537 1537 1538 1538 1538 1538 1538 1538 1537 1537 1536 1536 1535 1535 1535 1535 1535 1535 1535 1535 1535 1535 1535 1535 1535
1503 1506 1509 1512 1515 1517 1519 1522 1524 1526 1527 1529 1530 1531 1533 1533 1534 1535 1536 1536 1536 1536 1536 1536 1536 1536 1536 1535 1535 1534 1534 1533 1533 1533 1533 1533 1533 1533 1533 1533 1533 1533 1533
1502 1505 1508 1510 1512 1515 1517 1520 1523 1525 1527 1528 1529 1530 1531 1532 1533 1534 1534 1534 1534 1535 1535 1535 1535 1535 1534 1534 1534 1533 1533 1532 1532 1532 1532 1532 1531 1531 1531 1531 1531 1531 1531
1500 1503 1506 1508 1510 1513 1516 1519 1521 1524 1525 1526 1527 1528 1530 1530 1531 1532 1532 1533 1533 1533 1533 1533 1533 1533 1533 1533 1533 1532 1532 1531 1531 1531 1530 1530 1530 1529 1529 1529 1529 1529 1529
1500 1502 1504 1506 1508 1512 1515 1518 1520 1522 1523 1525 1525 1527 1528 1528 1529 1530 1530 1530 1531 1531 1532 1532 1532 1532 1532 1532 1531 1531 1531 1530 1530 1530 1529 1529 1529 1528 1528 1528 1527 1527 1527
1499 1500 1502 1504 1507 1510 1513 1515 1518 1520 1521 1523 1524 1525 1526 1527 1527 1527 1528 1529 1529 1529 1530 1530 1531 1531 1530 1530 1530 1530 1530 1529 1529 1529 1528 1528 1528 1527 1527 1527 1526 1526 1526
1499 1501 1502 1504 1506 1509 1511 1514 1516 1518 1519 1521 1522 1524 1524 1525 1525 1526 1526 1527 1527 1528 1528 1529 1529 1529 1529 1529 1529 1529 1529 1529 1528 1528 1528 1527 1527 1526 1526 1526 1525 1525 1525
1500 1501 1502 1504 1506 1508 1511 1513 1515 1517 1518 1520 1521 1522 1523 1524 1524 1524 1524 1525 1526 1526 1527 1527 1527 1528 1528 1528 1528 1528 1528 1528 1527 1527 1527 1527 1526 1526 1525 1525 1524 1524 1524
1501 1501 1503 1504 1506 1508 1510 1512 1514 1515 1517 1519 1520 1520 1521 1522 1523 1523 1523 1524 1525 1525 1525 1526 1526 1527 1527 1526 1526 1526 1527 1527 1526 1526 1526 1526 1526 1525 1525 1524 1524 1523 1523
1502 1503 1504 1505 1506 1508 1510 1512 1513 1514 1515 1517 1518 1519 1520 1520 1521 1522 1523 1523 1524 1524 1524 1525 1525 1525 1525 1525 1524 1524 1525 1525 1525 1525 1525 1525 1525 1524 1523 1523 1523 1522 1522
1504 1504 1505 1506 1507 1508 1509 1510 1512 1513 1515 1516 1517 1518 1519 1519 1520 1521 1522 1522 1523 1523 1524 1524 1524 1524 1523 1523 1523 1523 1523 1523 1523 1523 1523 1523 1523 1522 1522 1521 1521 1521 1520
1505 1505 1506 1507 1508 1508 1509 1510 1511 1513 1514 1516 1516 1517 1517 1518 1519 1520 1521 1521 1522 1522 1523 1523 1523 1522 1523 1522 1522 1522 1522 1522 1522 1522 1521 1521 1521 1521 1520 1520 1520 1520 1519